CW0630 Weather Reports


Display with metric or nautical units.
time (UTC)temp
F
wind
direction
speed
MPH
gust
MPH
rain 1hr
in
rain 24hr
in
rain mn
in
humidity
%
barometer
mb
20260509040846 57 182 1.0 2.0 0.00 0.01 0.00 60 1013.2
20260509030843 59 186 2.0 3.0 0.00 0.01 0.01 54 1013.6
20260509020859 60 188 2.0 5.0 0.00 0.01 0.01 49 1013.7
20260509010921 61 182 1.0 4.0 0.00 0.01 0.01 47 1013.1
20260509000921 64 178 3.0 4.0 0.00 0.01 0.01 43 1013.0
20260508230858 67 176 6.0 6.0 0.00 0.01 0.01 39 1012.4
20260508220846 69 186 3.0 4.0 0.00 0.01 0.01 35 1012.6
20260508210853 71 178 6.0 13.0 0.00 0.01 0.01 32 1012.5
20260508200842 72 206 3.0 4.0 0.00 0.06 0.01 37 1013.1
20260508190848 71 321 2.0 4.0 0.00 0.06 0.01 37 1014.0
20260508180845 69 194 7.0 10.0 0.00 0.06 0.01 35 1014.6
20260508170904 68 207 2.0 5.0 0.00 0.06 0.01 39 1015.3
20260508160904 67 249 4.0 4.0 0.01 0.06 0.01 44 1016.2
20260508150855 65 276 3.0 3.0 0.00 0.07 0.00 42 1016.7
20260508140850 63 317 4.0 4.0 0.00 0.07 0.00 49 1016.7
20260508130853 58 19 0.0 0.0 0.00 0.07 0.00 70 1016.8
20260508120858 49 273 0.0 0.0 0.00 0.07 0.00 96 1016.1
20260508110904 43 254 0.0 0.0 0.00 0.07 0.00 96 1015.1
20260508100900 42 245 0.0 0.0 0.00 0.07 0.00 95 1014.5
20260508090906 42 245 1.0 1.0 0.00 0.08 0.00 95 1013.9
20260508080852 43 244 0.0 0.0 0.00 0.08 0.00 95 1013.3
20260508070856 44 244 0.0 0.0 0.00 0.08 0.00 95 1012.9
20260508060849 45 244 0.0 0.0 0.00 0.08 0.00 95 1012.5
20260508050903 47 246 0.0 0.0 0.00 0.08 0.00 95 1012.4